Location: Zagreb
(45.8000°N, 16.0000°E)
Time: 15:25:15
(UTC+02:00)

Transit 2A - Pass Details

Date: 13 August 2022
Orbit: 601 x 956 km, 66.7° (Epoch: 25 September)

Event Time Altitude Azimuth Distance (km) Brightness Sun altitude
Rises 12:53:53 0° 230° (SW) 3,127 9.4 58.8°
Reaches altitude 10° 12:56:26 10° 238° (WSW) 2,154 8.7 58.8°
Maximum altitude 13:01:02 42° 309° (NW) 936 6.8 58.8°
Drops below altitude 10° 13:05:19 10° 21° (NNE) 2,008 8.0 58.8°
Sets 13:07:38 0° 29° (NNE) 2,891 8.7 58.8°
